FW2602 Weather Reports


Display with metric or nautical units.
time (UTC)temp
F
wind
direction
speed
MPH
gust
MPH
rain 1hr
in
rain 24hr
in
rain mn
in
humidity
%
barometer
mb
20260502152016 44 302 1.0 7.0 0.00 0.07 0.01 73 1012.4
20260502151527 43 312 1.0 12.0 0.00 0.07 0.01 71 1012.4
20260502151011 43 297 8.0 12.0 0.00 0.07 0.01 69 1012.3
20260502150523 44 269 3.0 11.0 0.00 0.07 0.01 67 1012.3
20260502130525 40 295 4.0 8.0 0.00 0.07 0.01 84 1012.9
20260502123520 39 288 4.0 11.0 0.00 0.07 0.01 86 1012.4
20260502123012 39 277 3.0 12.0 0.00 0.07 0.01 87 1012.5
20260502122518 39 288 4.0 9.0 0.00 0.07 0.01 88 1012.4
20260502122022 39 285 4.0 10.0 0.00 0.07 0.01 87 1012.4
20260502121516 39 294 6.0 13.0 0.00 0.07 0.01 87 1012.4
20260502121022 39 290 7.0 14.0 0.00 0.07 0.01 88 1012.5
20260502120529 39 304 5.0 15.0 0.00 0.07 0.01 89 1012.5
20260502115532 39 297 6.0 10.0 0.00 0.07 0.01 90 1012.5
20260502115031 38 295 5.0 10.0 0.00 0.07 0.01 89 1012.4
20260502114544 38 288 6.0 10.0 0.00 0.07 0.01 90 1012.4
20260502114031 38 298 6.0 10.0 0.00 0.07 0.01 90 1012.3
20260502113531 38 288 4.0 9.0 0.00 0.07 0.01 90 1012.4
20260502113031 38 291 4.0 9.0 0.00 0.07 0.01 90 1012.4
20260502112529 38 302 5.0 10.0 0.00 0.07 0.01 91 1012.4
20260502112031 38 274 6.0 12.0 0.00 0.07 0.01 91 1012.4
20260502111529 38 304 7.0 12.0 0.00 0.07 0.01 91 1012.3
20260502111028 38 288 4.0 9.0 0.00 0.07 0.01 92 1012.2
20260502110527 38 297 6.0 11.0 0.00 0.07 0.01 92 1012.1
20260502110027 38 291 5.0 11.0 0.00 0.07 0.01 92 1012.1
20260502105526 38 286 7.0 11.0 0.00 0.07 0.01 92 1012.1
20260502105025 38 288 6.0 11.0 0.00 0.07 0.01 92 1012.1
20260502104524 38 297 2.0 10.0 0.00 0.07 0.01 93 1012.0
20260502104023 38 297 4.0 10.0 0.00 0.07 0.01 93 1012.0
20260502103522 38 289 2.0 9.0 0.00 0.07 0.01 93 1011.9
20260502103023 38 300 5.0 9.0 0.00 0.07 0.01 93 1011.8
20260502102522 38 298 5.0 9.0 0.00 0.07 0.01 93 1011.8
20260502102021 38 277 3.0 6.0 0.00 0.07 0.01 93 1011.8
20260502101520 38 297 1.0 5.0 0.00 0.07 0.01 93 1011.7
20260502101019 38 297 3.0 5.0 0.00 0.07 0.01 93 1011.6
20260502100518 38 288 1.0 8.0 0.00 0.07 0.01 93 1011.6
20260502091513 38 288 5.0 10.0 0.00 0.07 0.01 94 1011.3
20260502091011 38 317 5.0 10.0 0.00 0.07 0.01 94 1011.2
20260502090511 38 302 2.0 4.0 0.01 0.07 0.01 94 1011.2
20260502071055 42 278 2.0 7.0 0.00 0.06 0.00 89 1010.7
20260502070553 42 275 2.0 7.0 0.00 0.06 0.00 89 1010.7
20260502065552 42 298 3.0 6.0 0.00 0.06 0.00 89 1010.8
20260502065051 42 280 1.0 6.0 0.00 0.06 0.00 89 1010.8
20260502064615 42 278 4.0 6.0 0.00 0.06 0.00 89 1010.8
20260502064050 42 273 3.0 8.0 0.00 0.06 0.00 89 1010.8
20260502063550 42 269 3.0 8.0 0.00 0.06 0.00 89 1010.9
20260502063104 42 286 2.0 7.0 0.00 0.06 0.00 89 1011.0
20260502062552 42 295 4.0 7.0 0.00 0.06 0.00 89 1011.0
20260502062049 42 242 3.0 6.0 0.00 0.06 0.00 89 1011.0
20260502061548 42 304 1.0 8.0 0.00 0.06 0.00 89 1011.0
20260502061047 42 301 4.0 9.0 0.00 0.06 0.00 89 1011.2
20260502060549 42 263 5.0 9.0 0.00 0.06 0.00 89 1011.2
20260502060048 42 276 4.0 6.0 0.00 0.06 0.00 89 1011.1
20260502055548 42 279 3.0 6.0 0.00 0.06 0.00 89 1010.9
20260502055045 42 300 2.0 5.0 0.00 0.06 0.00 89 1011.0
20260502054543 42 297 2.0 5.0 0.00 0.06 0.00 89 1011.1
20260502054042 42 298 1.0 5.0 0.00 0.06 0.00 89 1011.0
20260502053541 42 307 2.0 8.0 0.00 0.06 0.00 89 1011.3
20260502053042 42 298 3.0 8.0 0.00 0.06 0.00 89 1011.3
20260502052540 42 276 1.0 5.0 0.00 0.06 0.00 89 1011.1
20260502052040 42 280 1.0 5.0 0.00 0.06 0.00 89 1011.2
20260502051539 42 324 1.0 5.0 0.00 0.06 0.00 89 1011.2
20260502051041 42 294 2.0 5.0 0.00 0.06 0.00 89 1011.4
20260502050538 42 259 1.0 5.0 0.00 0.06 0.00 89 1011.4
20260502050046 42 277 2.0 9.0 0.00 0.06 0.00 90 1011.5
20260502045539 42 243 5.0 9.0 0.00 0.06 0.00 90 1011.4
20260502045035 42 267 1.0 4.0 0.01 0.06 0.00 90 1011.3
20260502044534 42 300 2.0 7.0 0.01 0.06 0.00 90 1011.4
20260502044034 42 292 2.0 7.0 0.01 0.06 0.00 90 1011.3
20260502043534 42 261 1.0 5.0 0.01 0.06 0.00 90 1011.3
20260502043042 42 282 2.0 7.0 0.01 0.06 0.00 90 1011.4
20260502042533 42 271 3.0 7.0 0.01 0.06 0.00 90 1011.3
20260502042033 42 283 1.0 6.0 0.01 0.06 0.00 90 1011.2
20260502041539 42 274 2.0 7.0 0.01 0.06 0.00 90 1011.3
20260502041031 42 298 2.0 7.0 0.01 0.06 0.00 90 1011.3
20260502040533 42 264 1.0 4.0 0.02 0.06 0.00 90 1011.4
20260502040131 42 269 0.0 3.0 0.02 0.06 0.00 90 1011.3
20260502035529 42 270 0.0 6.0 0.01 0.05 0.05 90 1011.4
20260502035028 42 297 2.0 6.0 0.01 0.05 0.05 90 1011.5
20260502034528 42 274 3.0 6.0 0.01 0.05 0.05 89 1011.5
20260502034028 42 297 3.0 6.0 0.02 0.05 0.05 89 1011.3
20260502033528 42 293 4.0 6.0 0.02 0.05 0.05 89 1011.3
20260502033030 42 288 2.0 5.0 0.02 0.05 0.05 89 1011.2
20260502032527 42 309 0.0 6.0 0.02 0.05 0.05 89 1011.3
20260502032027 42 279 1.0 6.0 0.02 0.05 0.05 89 1011.3
20260502031527 42 234 0.0 6.0 0.02 0.05 0.05 89 1011.4
20260502031027 42 281 0.0 5.0 0.02 0.05 0.05 90 1011.5
20260502030526 42 315 0.0 2.0 0.01 0.04 0.04 90 1011.6
20260502030027 42 281 0.0 2.0 0.02 0.04 0.04 90 1011.8
20260502025526 42 301 0.0 1.0 0.02 0.04 0.04 90 1011.7
20260502025029 43 290 0.0 3.0 0.02 0.04 0.04 90 1011.8
20260502024531 43 295 0.0 3.0 0.03 0.04 0.04 90 1011.8
20260502024026 42 219 0.0 2.0 0.03 0.03 0.03 90 1011.9
20260502023526 42 283 0.0 2.0 0.03 0.03 0.03 89 1011.8
20260502023026 42 263 0.0 1.0 0.03 0.03 0.03 89 1011.7
20260502022524 43 263 0.0 0.0 0.03 0.03 0.03 88 1011.7
20260502022028 43 263 0.0 0.0 0.03 0.03 0.03 88 1011.7
20260502021524 43 263 0.0 1.0 0.03 0.03 0.03 87 1011.7
20260502021024 43 263 0.0 1.0 0.03 0.03 0.03 87 1011.8
20260502020528 43 264 0.0 1.0 0.03 0.03 0.03 86 1011.8
20260502020024 44 264 0.0 1.0 0.02 0.02 0.02 84 1011.9
20260502015526 44 270 0.0 1.0 0.02 0.02 0.02 83 1011.9
20260502015025 44 271 0.0 1.0 0.02 0.02 0.02 82 1011.9
20260502014524 45 270 0.0 3.0 0.01 0.01 0.01 81 1012.0
20260502014022 45 285 0.0 4.0 0.00 0.00 0.00 79 1012.0
20260502013522 45 290 1.0 4.0 0.00 0.00 0.00 77 1011.9
20260502013022 46 312 1.0 5.0 0.00 0.00 0.00 76 1011.8
20260502012522 46 220 2.0 5.0 0.00 0.00 0.00 75 1011.8
20260502012026 46 298 1.0 4.0 0.00 0.00 0.00 74 1011.7
20260502011522 46 295 1.0 7.0 0.00 0.00 0.00 73 1011.7
20260502011021 46 280 4.0 7.0 0.00 0.00 0.00 73 1011.6
20260502010521 46 278 2.0 5.0 0.00 0.00 0.00 72 1011.5
20260502010027 47 271 2.0 5.0 0.00 0.00 0.00 71 1011.5
20260502005521 47 252 2.0 5.0 0.00 0.00 0.00 71 1011.4
20260502005020 47 292 1.0 4.0 0.00 0.00 0.00 70 1011.4
20260502004527 47 286 2.0 6.0 0.00 0.00 0.00 70 1011.4
20260502004020 47 293 2.0 6.0 0.00 0.00 0.00 69 1011.4
20260502003519 47 297 2.0 5.0 0.00 0.00 0.00 69 1011.3
20260502003023 47 294 0.0 2.0 0.00 0.00 0.00 68 1011.2
20260502002510 47 293 1.0 4.0 0.00 0.00 0.00 68 1011.2
20260502002014 47 297 0.0 4.0 0.00 0.00 0.00 68 1011.1
20260502001523 47 295 0.0 5.0 0.00 0.00 0.00 68 1011.1
20260502001009 47 314 0.0 7.0 0.00 0.00 0.00 68 1011.1
20260502000517 47 297 3.0 7.0 0.00 0.00 0.00 67 1011.1
20260502000021 48 262 1.0 4.0 0.00 0.00 0.00 66 1011.0
20260501235508 48 325 1.0 6.0 0.00 0.00 0.00 65 1010.9
20260501235014 48 262 1.0 6.0 0.00 0.00 0.00 65 1011.0
20260501234524 48 297 2.0 7.0 0.00 0.00 0.00 65 1011.0
20260501234013 48 294 3.0 7.0 0.00 0.00 0.00 64 1011.0
20260501233520 48 290 2.0 5.0 0.00 0.00 0.00 64 1011.0
20260501233020 49 263 3.0 5.0 0.00 0.00 0.00 63 1010.9
20260501232509 49 271 2.0 5.0 0.00 0.00 0.00 62 1011.0
20260501232016 49 283 2.0 6.0 0.00 0.00 0.00 62 1011.0
20260501231509 49 290 3.0 8.0 0.00 0.00 0.00 61 1011.0
20260501231015 49 264 5.0 10.0 0.00 0.00 0.00 61 1011.0
20260501230528 49 301 6.0 10.0 0.00 0.00 0.00 62 1010.9
20260501230021 49 297 6.0 9.0 0.00 0.00 0.00 60 1011.0
20260501225525 49 276 5.0 9.0 0.00 0.00 0.00 61 1010.8
20260501225013 49 283 3.0 10.0 0.00 0.00 0.00 60 1010.8
20260501224517 50 297 6.0 11.0 0.00 0.00 0.00 59 1010.7
20260501224019 50 278 5.0 11.0 0.00 0.00 0.00 58 1010.7
20260501223511 50 285 4.0 11.0 0.00 0.00 0.00 58 1010.7
20260501223057 50 283 6.0 11.0 0.00 0.00 0.00 57 1010.7
20260501222511 50 286 3.0 13.0 0.00 0.00 0.00 57 1010.6
20260501222015 50 283 5.0 12.0 0.00 0.00 0.00 58 1010.6
20260501221613 50 274 7.0 10.0 0.00 0.00 0.00 57 1010.6
20260501221018 50 297 4.0 9.0 0.00 0.00 0.00 57 1010.6
20260501220523 50 274 6.0 9.0 0.00 0.00 0.00 56 1010.6
20260501220010 51 297 1.0 7.0 0.00 0.00 0.00 53 1010.6
20260501215522 51 277 3.0 7.0 0.00 0.00 0.00 56 1010.6
20260501215008 51 280 3.0 6.0 0.00 0.00 0.00 55 1010.6
20260501214517 51 298 1.0 4.0 0.00 0.00 0.00 54 1010.4
20260501214021 51 271 1.0 4.0 0.00 0.00 0.00 54 1010.5
20260501213513 51 296 0.0 1.0 0.00 0.00 0.00 53 1010.4
20260501213015 52 72 0.0 0.0 0.00 0.00 0.00 52 1010.4
20260501212524 52 72 0.0 1.0 0.00 0.00 0.00 52 1010.3
20260501212010 51 73 0.0 2.0 0.00 0.00 0.00 53 1010.3
20260501211522 51 75 1.0 2.0 0.00 0.00 0.00 53 1010.3
20260501211008 51 83 0.0 2.0 0.00 0.00 0.00 53 1010.3
20260501210517 51 68 0.0 2.0 0.00 0.00 0.00 53 1010.3
20260501210017 51 89 0.0 2.0 0.00 0.00 0.00 54 1010.3
20260501205509 51 86 0.0 3.0 0.00 0.00 0.00 53 1010.3
20260501205017 51 115 0.0 1.0 0.00 0.00 0.00 53 1010.3
20260501204540 51 119 0.0 1.0 0.00 0.00 0.00 53 1010.3
20260501204012 51 119 0.0 1.0 0.00 0.00 0.00 53 1010.3
20260501203524 51 120 0.0 1.0 0.00 0.00 0.00 54 1010.4
20260501203009 52 118 0.0 1.0 0.00 0.00 0.00 53 1010.3
20260501202518 52 82 0.0 2.0 0.00 0.00 0.00 51 1010.3
20260501202019 52 328 0.0 2.0 0.00 0.00 0.00 53 1010.3
20260501201510 52 335 0.0 2.0 0.00 0.00 0.00 53 1010.3
20260501201015 52 94 0.0 3.0 0.00 0.00 0.00 51 1010.3
20260501200527 52 258 0.0 3.0 0.00 0.00 0.00 52 1010.3
20260501200013 51 82 0.0 5.0 0.00 0.00 0.00 53 1010.4
20260501195522 52 312 1.0 6.0 0.00 0.00 0.00 51 1010.3
20260501195009 52 302 1.0 6.0 0.00 0.00 0.00 52 1010.3
20260501194525 52 76 0.0 2.0 0.00 0.00 0.00 51 1010.3
20260501194006 52 1 0.0 2.0 0.00 0.00 0.00 50 1010.3
20260501193519 51 322 0.0 4.0 0.00 0.00 0.00 49 1010.3
20260501193006 52 312 1.0 5.0 0.00 0.00 0.00 50 1010.4
20260501192516 52 303 1.0 7.0 0.00 0.00 0.00 52 1010.4
20260501192019 52 295 4.0 7.0 0.00 0.00 0.00 48 1010.4
20260501191515 53 291 3.0 7.0 0.00 0.00 0.00 46 1010.4
20260501191017 54 111 2.0 4.0 0.00 0.00 0.00 48 1010.3
20260501190525 53 96 0.0 3.0 0.00 0.00 0.00 51 1010.3
20260501190014 52 318 0.0 2.0 0.00 0.00 0.00 48 1010.4
20260501185519 52 302 0.0 2.0 0.00 0.00 0.00 51 1010.5
20260501185007 52 294 0.0 2.0 0.00 0.00 0.00 51 1010.5
20260501184536 51 160 0.0 4.0 0.00 0.00 0.00 50 1010.6
20260501184020 51 294 1.0 5.0 0.00 0.00 0.00 48 1010.7
20260501183516 52 300 2.0 10.0 0.00 0.00 0.00 50 1010.8
20260501183015 52 295 4.0 13.0 0.00 0.00 0.00 50 1010.6
20260501182521 52 316 5.0 13.0 0.00 0.00 0.00 51 1010.6
20260501182011 52 295 3.0 7.0 0.00 0.00 0.00 52 1010.6
20260501181517 52 288 2.0 10.0 0.00 0.00 0.00 49 1010.7
20260501181019 52 294 4.0 9.0 0.00 0.00 0.00 53 1010.7
20260501180514 52 304 1.0 8.0 0.00 0.00 0.00 52 1010.8
20260501180018 51 312 0.0 8.0 0.00 0.00 0.00 51 1010.9
20260501175511 51 290 3.0 7.0 0.00 0.00 0.00 52 1011.0
20260501175021 51 303 1.0 7.0 0.00 0.00 0.00 54 1011.0
20260501174527 51 301 3.0 6.0 0.00 0.00 0.00 52 1011.0
20260501174013 52 283 2.0 8.0 0.00 0.00 0.00 52 1011.1
20260501173524 52 77 3.0 9.0 0.00 0.00 0.00 53 1011.1
20260501173012 51 302 6.0 9.0 0.00 0.00 0.00 56 1011.1
20260501172523 51 328 2.0 11.0 0.00 0.00 0.00 57 1011.1
20260501172007 50 295 2.0 11.0 0.00 0.00 0.00 52 1011.2
20260501171518 50 302 6.0 10.0 0.00 0.00 0.00 54 1011.3
20260501171020 50 283 2.0 6.0 0.00 0.00 0.00 55 1011.4
20260501170524 49 110 3.0 11.0 0.00 0.00 0.00 54 1011.3
20260501170010 49 285 5.0 11.0 0.00 0.00 0.00 57 1011.4
20260501165520 49 312 2.0 7.0 0.00 0.00 0.00 58 1011.4
20260501165009 49 288 3.0 11.0 0.00 0.00 0.00 53 1011.5
20260501164520 49 332 6.0 13.0 0.00 0.00 0.00 54 1011.5
20260501164011 49 283 3.0 10.0 0.00 0.00 0.00 56 1011.5
20260501163522 49 302 3.0 6.0 0.00 0.00 0.00 54 1011.7
20260501163010 49 276 1.0 8.0 0.00 0.00 0.00 56 1011.9
20260501162515 49 318 3.0 10.0 0.00 0.00 0.00 52 1011.9
20260501162021 49 278 2.0 12.0 0.00 0.00 0.00 55 1011.9
20260501161514 50 284 2.0 14.0 0.00 0.00 0.00 56 1011.8
20260501161015 49 295 10.0 14.0 0.00 0.00 0.00 55 1011.9
20260501160521 49 302 6.0 11.0 0.00 0.00 0.00 56 1011.9
20260501160008 49 263 3.0 9.0 0.00 0.00 0.00 59 1012.1